Weather History for Alexandria, LA

Change the Weather History Date:

Wednesday, October 19, 2011

  Actual Average Record
Temperature  
Mean Temperature 54 °F 66 °F  
Max Temperature 66 °F 79 °F 92 °F (2004)
Min Temperature 41 °F 54 °F 30 °F (1948)
Degree Days  
Heating Degree Days 11 3  
Month to date heating degree days 28 27  
Since 1 July heating degree days 28 30  
Cooling Degree Days 0 4  
Month to date cooling degree days 76 101  
Year to date cooling degree days 2953 2451  
Growing Degree Days 4 (Base 50)    
Moisture  
Dew Point 36 °F    
Average Humidity 61    
Maximum Humidity 100    
Minimum Humidity 22    
Precipitation  
Precipitation 0.00 in 0.18 in 4.55 in (1994)
Month to date precipitation 0.36 3.81  
Year to date precipitation 26.26 42.94  
Snow  
Snow 0.00 in - 0.00 in ()
Month to date snowfall 0.0  
Since 1 July snowfall 0.0  
Since 1 September snowfall 0.0  
Snow Depth 0.00 in    
Sea Level Pressure  
Sea Level Pressure 29.95 in    
Wind  
Wind Speed 10 mph (NW)    
Max Wind Speed 30 mph    
Max Gust Speed 40 mph    
Visibility 10 miles    
Events      
T = Trace of Precipitation, MM = Missing Value Source: NWS Daily Summary

Daily Weather History Graph

Daily Weather History Graph

Search for Another Location

Airport:

Trip Planner

Search our weather history database for the weather conditions in past years. The results will help you decide how hot, cold, wet, or windy it might be!

Date:

Astronomy

Oct. 19, 2011 Rise Set
Actual Time 7:15 AM CDT 6:34 PM CDT
Civil Twilight 6:51 AM CDT 6:58 PM CDT
Nautical Twilight 6:22 AM CDT 7:26 PM CDT
Astronomical Twilight 5:54 AM CDT 7:55 PM CDT
Moon No Moon Rise 1:37 PM CDT (10/19)
Length of Visible Light 12h 07m
Length of Day
11h 18m
Waning Gibbous, 54% of the Moon is Illuminated
Oct 19
Waning Gibbous
Oct 19
Last Quarter
Oct 26
New
Nov 2
First Quarter
Nov 10
Full

Hourly Weather History & Observations

Time (CDT) Temp. Windchill Dew Point Humidity Pressure Visibility Wind Dir Wind Speed Gust Speed Precip Events Conditions
12:53 AM 45.0 °F - 45.0 °F 100% 29.93 in 10.0 mi Calm Calm - N/A   Clear
1:53 AM 46.0 °F 43.9 °F 46.0 °F 100% 29.93 in 10.0 mi West 4.6 mph - N/A   Clear
2:53 AM 46.0 °F 43.1 °F 45.0 °F 96% 29.91 in 10.0 mi West 5.8 mph - N/A   Clear
3:53 AM 45.0 °F 43.5 °F 44.1 °F 97% 29.90 in 10.0 mi West 3.5 mph - N/A   Clear
4:53 AM 46.0 °F 41.9 °F 42.1 °F 86% 29.90 in 10.0 mi WNW 8.1 mph - N/A   Clear
5:53 AM 46.0 °F 41.0 °F 41.0 °F 83% 29.91 in 10.0 mi NW 10.4 mph - N/A   Clear
6:53 AM 45.0 °F 40.6 °F 39.9 °F 82% 29.94 in 10.0 mi WNW 8.1 mph - N/A   Clear
7:53 AM 45.0 °F 38.9 °F 39.9 °F 82% 29.95 in 10.0 mi NW 12.7 mph - N/A   Clear
8:53 AM 48.9 °F - 39.9 °F 71% 29.97 in 10.0 mi NW 10.4 mph - N/A   Clear
9:53 AM 53.1 °F - 37.0 °F 55% 29.98 in 10.0 mi NW 13.8 mph 26.5 mph N/A   Unknown
10:53 AM - - - N/A% 29.96 in 10.0 mi NW 20.7 mph 32.2 mph N/A   Unknown
11:53 AM 60.8 °F - 33.8 °F 36% 29.95 in 10.0 mi NW 19.6 mph 26.5 mph N/A   Clear
12:53 PM 61.0 °F - 33.1 °F 35% 29.94 in 10.0 mi WNW 19.6 mph 27.6 mph N/A   Clear
1:53 PM 64.0 °F - 30.9 °F 29% 29.91 in 10.0 mi NW 19.6 mph 35.7 mph N/A   Clear
3:53 PM 64.9 °F - 24.1 °F 21% 29.90 in 10.0 mi NNW 27.6 mph 40.3 mph N/A   Clear
4:53 PM 64.9 °F - 26.1 °F 23% 29.90 in 10.0 mi NNW 19.6 mph 31.1 mph N/A   Clear
5:53 PM 63.0 °F - 28.0 °F 27% 29.93 in 10.0 mi NW 13.8 mph 23.0 mph N/A   Clear
6:53 PM 55.9 °F - 30.9 °F 39% 29.96 in 10.0 mi NW 6.9 mph - N/A   Clear
7:53 PM 54.0 °F - 32.0 °F 43% 29.99 in 10.0 mi WNW 3.5 mph - N/A   Clear
8:53 PM 48.0 °F - 36.0 °F 63% 30.01 in 10.0 mi Calm Calm - N/A   Clear
9:53 PM 46.9 °F - 35.1 °F 63% 30.04 in 10.0 mi Calm Calm - N/A   Clear
10:53 PM 44.1 °F - 37.0 °F 76% 30.04 in 10.0 mi Calm Calm - N/A   Clear
11:53 PM 41.0 °F - 36.0 °F 82% 30.06 in 10.0 mi Calm Calm - N/A   Clear